Time,TemperatureF,DewpointF,PressureIn,WindDirection,WindDirectionDegrees,WindSpeedMPH,WindSpeedGustMPH,Humidity,HourlyPrecipIn,Conditions,Clouds,dailyrainin,SoftwareType,DateUTC
2013-04-10 00:00:00,66.2,63.2,30.15,SW,215,0.0,0.0,90,0.00,,---,0.00,VWS V14.01,2013-04-10 04:00:00,
2013-04-10 00:05:00,66.1,63.1,30.14,SW,215,0.0,0.0,90,0.00,,---,0.00,VWS V14.01,2013-04-10 04:05:00,
2013-04-10 00:10:00,66.0,62.7,30.15,SW,216,0.0,0.0,89,0.00,,---,0.00,VWS V14.01,2013-04-10 04:10:00,
2013-04-10 00:15:00,65.9,62.6,30.15,SW,216,0.0,0.0,89,0.00,,---,0.00,VWS V14.01,2013-04-10 04:15:00,
2013-04-10 00:20:00,65.8,62.5,30.15,SW,215,0.0,3.0,89,0.00,,---,0.00,VWS V14.01,2013-04-10 04:20:00,
2013-04-10 00:25:00,65.8,62.5,30.14,SW,216,3.0,3.0,89,0.00,,---,0.00,VWS V14.01,2013-04-10 04:25:00,
2013-04-10 00:30:00,65.8,62.5,30.14,SW,215,3.0,4.0,89,0.00,,---,0.00,VWS V14.01,2013-04-10 04:30:00,
2013-04-10 00:35:00,65.8,62.5,30.14,SW,215,2.0,3.0,89,0.00,,---,0.00,VWS V14.01,2013-04-10 04:35:00,
2013-04-10 00:40:00,65.8,62.5,30.14,SW,216,0.0,2.0,89,0.00,,---,0.00,VWS V14.01,2013-04-10 04:40:00,
2013-04-10 00:45:00,65.8,62.5,30.14,SW,215,5.0,6.0,89,0.00,,---,0.00,VWS V14.01,2013-04-10 04:45:00,
2013-04-10 00:50:00,65.6,62.3,30.14,SW,215,0.0,2.0,89,0.00,,---,0.00,VWS V14.01,2013-04-10 04:50:00,
2013-04-10 00:55:00,65.5,62.2,30.14,SW,215,0.0,0.0,89,0.00,,---,0.00,VWS V14.01,2013-04-10 04:55:00,
2013-04-10 01:00:00,65.3,62.0,30.14,SW,215,0.0,1.0,89,0.00,,---,0.00,VWS V14.01,2013-04-10 05:00:00,
2013-04-10 01:05:00,65.3,62.0,30.13,SW,215,0.0,0.0,89,0.00,,---,0.00,VWS V14.01,2013-04-10 05:05:00,
2013-04-10 01:10:00,65.0,62.0,30.14,SW,215,0.0,4.0,90,0.00,,---,0.00,VWS V14.01,2013-04-10 05:10:00,
2013-04-10 01:15:00,64.9,61.9,30.14,SW,215,0.0,0.0,90,0.00,,---,0.00,VWS V14.01,2013-04-10 05:15:00,
2013-04-10 01:20:00,64.6,61.6,30.14,SW,215,1.0,1.0,90,0.00,,---,0.00,VWS V14.01,2013-04-10 05:20:00,
2013-04-10 01:25:00,64.4,61.4,30.13,SW,215,0.0,0.0,90,0.00,,---,0.00,VWS V14.01,2013-04-10 05:25:00,
2013-04-10 01:30:00,64.2,61.5,30.13,SW,215,0.0,4.0,91,0.00,,---,0.00,VWS V14.01,2013-04-10 05:30:00,
2013-04-10 01:31:00,64.2,61.5,30.13,SW,215,0.0,4.0,91,0.00,,---,0.00,VWS V14.01,2013-04-10 05:31:00,
2013-04-10 01:35:00,64.0,61.3,30.12,SW,215,0.0,1.0,91,0.00,,---,0.00,VWS V14.01,2013-04-10 05:35:00,
2013-04-10 01:36:00,64.0,61.3,30.12,SW,215,0.0,2.0,91,0.00,,---,0.00,VWS V14.01,2013-04-10 05:36:00,
2013-04-10 01:40:00,63.9,61.5,30.12,SW,215,0.0,0.0,92,0.00,,---,0.00,VWS V14.01,2013-04-10 05:40:00,
2013-04-10 01:41:00,63.9,61.5,30.12,SW,215,0.0,0.0,92,0.00,,---,0.00,VWS V14.01,2013-04-10 05:41:00,
2013-04-10 01:45:00,63.9,61.5,30.12,SW,215,0.0,3.0,92,0.00,,---,0.00,VWS V14.01,2013-04-10 05:45:00,
2013-04-10 01:46:00,63.9,61.5,30.12,SW,215,0.0,3.0,92,0.00,,---,0.00,VWS V14.01,2013-04-10 05:46:00,
2013-04-10 01:50:00,64.0,61.6,30.12,SW,215,0.0,3.0,92,0.00,,---,0.00,VWS V14.01,2013-04-10 05:50:00,
2013-04-10 01:51:00,64.0,61.6,30.12,SW,215,0.0,3.0,92,0.00,,---,0.00,VWS V14.01,2013-04-10 05:51:00,
2013-04-10 01:55:00,64.0,61.6,30.12,SW,215,0.0,0.0,92,0.00,,---,0.00,VWS V14.01,2013-04-10 05:55:00,
2013-04-10 01:56:00,64.0,61.6,30.12,SW,215,0.0,0.0,92,0.00,,---,0.00,VWS V14.01,2013-04-10 05:56:00,
2013-04-10 02:00:00,64.0,61.6,30.11,SW,215,0.0,3.0,92,0.00,,---,0.00,VWS V14.01,2013-04-10 06:00:00,
2013-04-10 02:01:00,64.0,61.6,30.11,SW,215,0.0,3.0,92,0.00,,---,0.00,VWS V14.01,2013-04-10 06:01:00,
2013-04-10 02:05:00,64.0,61.6,30.11,SW,215,1.0,3.0,92,0.00,,---,0.00,VWS V14.01,2013-04-10 06:05:00,
2013-04-10 02:06:00,64.0,61.6,30.11,SW,215,0.0,3.0,92,0.00,,---,0.00,VWS V14.01,2013-04-10 06:06:00,
2013-04-10 02:10:00,63.9,61.5,30.11,SW,215,0.0,4.0,92,0.00,,---,0.00,VWS V14.01,2013-04-10 06:10:00,
2013-04-10 02:11:00,63.9,61.5,30.11,SW,215,0.0,4.0,92,0.00,,---,0.00,VWS V14.01,2013-04-10 06:11:00,
2013-04-10 02:15:00,63.8,61.4,30.10,SW,215,2.0,4.0,92,0.00,,---,0.00,VWS V14.01,2013-04-10 06:15:00,
2013-04-10 02:17:00,63.9,61.5,30.10,SW,215,4.0,4.0,92,0.00,,---,0.00,VWS V14.01,2013-04-10 06:17:00,
2013-04-10 02:20:00,63.9,61.5,30.10,SW,215,2.0,2.0,92,0.00,,---,0.00,VWS V14.01,2013-04-10 06:20:00,
2013-04-10 02:22:00,63.9,61.5,30.10,SW,215,2.0,2.0,92,0.00,,---,0.00,VWS V14.01,2013-04-10 06:22:00,
2013-04-10 02:25:00,63.8,61.4,30.10,SW,215,0.0,4.0,92,0.00,,---,0.00,VWS V14.01,2013-04-10 06:25:00,
2013-04-10 02:27:00,63.8,61.4,30.10,SW,215,0.0,4.0,92,0.00,,---,0.00,VWS V14.01,2013-04-10 06:27:00,
2013-04-10 02:30:00,63.8,61.4,30.10,SW,215,0.0,3.0,92,0.00,,---,0.00,VWS V14.01,2013-04-10 06:30:00,
2013-04-10 02:32:00,63.8,61.4,30.10,SW,215,1.0,3.0,92,0.00,,---,0.00,VWS V14.01,2013-04-10 06:32:00,
2013-04-10 02:35:00,63.8,61.4,30.10,SW,215,1.0,4.0,92,0.00,,---,0.00,VWS V14.01,2013-04-10 06:35:00,
2013-04-10 02:37:00,63.8,61.4,30.10,SW,215,0.0,4.0,92,0.00,,---,0.00,VWS V14.01,2013-04-10 06:37:00,
2013-04-10 02:40:00,63.7,61.3,30.10,SW,215,0.0,1.0,92,0.00,,---,0.00,VWS V14.01,2013-04-10 06:40:00,
2013-04-10 02:42:00,63.7,61.3,30.10,SW,215,0.0,2.0,92,0.00,,---,0.00,VWS V14.01,2013-04-10 06:42:00,
2013-04-10 02:45:00,63.7,61.3,30.09,SW,215,0.0,4.0,92,0.00,,---,0.00,VWS V14.01,2013-04-10 06:45:00,
2013-04-10 02:47:00,63.7,61.3,30.09,SW,215,0.0,4.0,92,0.00,,---,0.00,VWS V14.01,2013-04-10 06:47:00,
2013-04-10 02:50:00,63.7,61.3,30.09,SW,215,0.0,0.0,92,0.00,,---,0.00,VWS V14.01,2013-04-10 06:50:00,
2013-04-10 02:52:00,63.7,61.3,30.09,SW,215,0.0,0.0,92,0.00,,---,0.00,VWS V14.01,2013-04-10 06:52:00,
2013-04-10 02:55:00,63.8,61.4,30.09,SW,215,2.0,3.0,92,0.00,,---,0.00,VWS V14.01,2013-04-10 06:55:00,
2013-04-10 02:57:00,63.8,61.4,30.09,SW,215,3.0,3.0,92,0.00,,---,0.00,VWS V14.01,2013-04-10 06:57:00,
2013-04-10 03:00:00,63.9,61.5,30.09,SW,223,6.0,7.0,92,0.00,,---,0.00,VWS V14.01,2013-04-10 07:00:00,
2013-04-10 03:02:00,63.9,61.5,30.09,SW,222,7.0,7.0,92,0.00,,---,0.00,VWS V14.01,2013-04-10 07:02:00,
2013-04-10 03:05:00,64.1,61.7,30.09,SW,221,0.0,0.0,92,0.00,,---,0.00,VWS V14.01,2013-04-10 07:05:00,
2013-04-10 03:07:00,64.1,61.7,30.09,SW,221,0.0,0.0,92,0.00,,---,0.00,VWS V14.01,2013-04-10 07:07:00,
2013-04-10 03:10:00,64.3,61.9,30.09,SW,221,2.0,4.0,92,0.00,,---,0.00,VWS V14.01,2013-04-10 07:10:00,
2013-04-10 03:12:00,64.3,61.9,30.09,SW,221,0.0,4.0,92,0.00,,---,0.00,VWS V14.01,2013-04-10 07:12:00,
2013-04-10 03:15:00,64.4,62.0,30.09,SW,221,2.0,5.0,92,0.00,,---,0.00,VWS V14.01,2013-04-10 07:15:00,
2013-04-10 03:17:00,64.4,62.0,30.09,SW,221,2.0,5.0,92,0.00,,---,0.00,VWS V14.01,2013-04-10 07:17:00,
2013-04-10 03:20:00,64.5,61.8,30.09,SW,221,4.0,7.0,91,0.00,,---,0.00,VWS V14.01,2013-04-10 07:20:00,
2013-04-10 03:22:00,64.5,61.8,30.09,SW,221,4.0,7.0,91,0.00,,---,0.00,VWS V14.01,2013-04-10 07:22:00,
2013-04-10 03:25:00,64.5,61.8,30.09,SW,221,0.0,0.0,91,0.00,,---,0.00,VWS V14.01,2013-04-10 07:25:00,
2013-04-10 03:27:00,64.5,61.8,30.09,SW,221,0.0,0.0,91,0.00,,---,0.00,VWS V14.01,2013-04-10 07:27:00,
2013-04-10 03:30:00,64.4,61.7,30.09,SW,221,0.0,0.0,91,0.00,,---,0.00,VWS V14.01,2013-04-10 07:30:00,
2013-04-10 03:32:00,64.4,61.7,30.09,SW,221,0.0,0.0,91,0.00,,---,0.00,VWS V14.01,2013-04-10 07:32:00,
2013-04-10 03:35:00,64.3,61.6,30.09,SW,221,0.0,0.0,91,0.00,,---,0.00,VWS V14.01,2013-04-10 07:35:00,
2013-04-10 03:37:00,64.3,61.6,30.09,SW,221,0.0,0.0,91,0.00,,---,0.00,VWS V14.01,2013-04-10 07:37:00,
2013-04-10 03:40:00,64.3,61.6,30.10,SW,221,0.0,1.0,91,0.00,,---,0.00,VWS V14.01,2013-04-10 07:40:00,
2013-04-10 03:42:00,64.3,61.6,30.10,SW,221,0.0,1.0,91,0.00,,---,0.00,VWS V14.01,2013-04-10 07:42:00,
2013-04-10 03:45:00,64.1,61.4,30.09,SW,221,0.0,0.0,91,0.00,,---,0.00,VWS V14.01,2013-04-10 07:45:00,
2013-04-10 03:47:00,64.1,61.4,30.09,SW,221,0.0,0.0,91,0.00,,---,0.00,VWS V14.01,2013-04-10 07:47:00,
2013-04-10 03:50:00,64.1,61.4,30.09,SW,221,0.0,0.0,91,0.00,,---,0.00,VWS V14.01,2013-04-10 07:50:00,
2013-04-10 03:52:00,64.1,61.4,30.09,SW,221,0.0,0.0,91,0.00,,---,0.00,VWS V14.01,2013-04-10 07:52:00,
2013-04-10 03:55:00,64.2,61.8,30.09,SW,221,1.0,2.0,92,0.00,,---,0.00,VWS V14.01,2013-04-10 07:55:00,
2013-04-10 03:57:00,64.2,61.8,30.09,SW,221,0.0,2.0,92,0.00,,---,0.00,VWS V14.01,2013-04-10 07:57:00,
2013-04-10 04:00:00,64.2,61.8,30.09,SW,221,0.0,0.0,92,0.00,,---,0.00,VWS V14.01,2013-04-10 08:00:00,
2013-04-10 04:02:00,64.2,61.5,30.09,SW,221,0.0,0.0,91,0.00,,---,0.00,VWS V14.01,2013-04-10 08:02:00,
2013-04-10 04:05:00,64.1,61.4,30.09,SW,221,0.0,0.0,91,0.00,,---,0.00,VWS V14.01,2013-04-10 08:05:00,
2013-04-10 04:07:00,64.1,61.4,30.09,SW,221,0.0,0.0,91,0.00,,---,0.00,VWS V14.01,2013-04-10 08:07:00,
2013-04-10 04:10:00,64.0,61.6,30.09,SW,221,0.0,4.0,92,0.00,,---,0.00,VWS V14.01,2013-04-10 08:10:00,
2013-04-10 04:12:00,64.0,61.6,30.09,SW,221,0.0,4.0,92,0.00,,---,0.00,VWS V14.01,2013-04-10 08:12:00,
2013-04-10 04:15:00,64.0,61.6,30.09,SW,221,2.0,2.0,92,0.00,,---,0.00,VWS V14.01,2013-04-10 08:15:00,
2013-04-10 04:17:00,64.0,61.6,30.09,SW,221,1.0,2.0,92,0.00,,---,0.00,VWS V14.01,2013-04-10 08:17:00,
2013-04-10 04:20:00,63.9,61.5,30.09,SW,221,0.0,0.0,92,0.00,,---,0.00,VWS V14.01,2013-04-10 08:20:00,
2013-04-10 04:22:00,63.9,61.5,30.09,SW,221,0.0,0.0,92,0.00,,---,0.00,VWS V14.01,2013-04-10 08:22:00,
2013-04-10 04:25:00,63.8,61.4,30.09,SW,221,0.0,0.0,92,0.00,,---,0.00,VWS V14.01,2013-04-10 08:25:00,
2013-04-10 04:27:00,63.8,61.4,30.09,SW,221,0.0,0.0,92,0.00,,---,0.00,VWS V14.01,2013-04-10 08:27:00,
2013-04-10 04:30:00,63.7,61.3,30.09,SW,221,0.0,1.0,92,0.00,,---,0.00,VWS V14.01,2013-04-10 08:30:00,
2013-04-10 04:32:00,63.7,61.3,30.09,SW,221,0.0,0.0,92,0.00,,---,0.00,VWS V14.01,2013-04-10 08:32:00,
2013-04-10 04:35:00,63.6,61.2,30.09,SW,221,0.0,0.0,92,0.00,,---,0.00,VWS V14.01,2013-04-10 08:35:00,
2013-04-10 04:37:00,63.6,61.2,30.09,SW,221,0.0,0.0,92,0.00,,---,0.00,VWS V14.01,2013-04-10 08:37:00,
2013-04-10 04:40:00,63.5,61.1,30.10,SW,221,0.0,0.0,92,0.00,,---,0.00,VWS V14.01,2013-04-10 08:40:00,
2013-04-10 04:42:00,63.5,61.1,30.10,SW,221,0.0,0.0,92,0.00,,---,0.00,VWS V14.01,2013-04-10 08:42:00,
2013-04-10 04:45:00,63.5,61.4,30.10,SW,221,0.0,2.0,93,0.00,,---,0.00,VWS V14.01,2013-04-10 08:45:00,
2013-04-10 04:47:00,63.5,61.4,30.10,SW,221,0.0,2.0,93,0.00,,---,0.00,VWS V14.01,2013-04-10 08:47:00,
2013-04-10 04:50:00,63.5,61.4,30.10,SW,221,0.0,0.0,93,0.00,,---,0.00,VWS V14.01,2013-04-10 08:50:00,
2013-04-10 04:52:00,63.5,61.4,30.10,SW,221,1.0,2.0,93,0.00,,---,0.00,VWS V14.01,2013-04-10 08:52:00,
2013-04-10 04:55:00,63.4,61.3,30.10,SW,221,1.0,3.0,93,0.00,,---,0.00,VWS V14.01,2013-04-10 08:55:00,
2013-04-10 04:57:00,63.4,61.3,30.10,SW,221,0.0,3.0,93,0.00,,---,0.00,VWS V14.01,2013-04-10 08:57:00,
2013-04-10 05:00:00,63.4,61.3,30.10,SW,221,0.0,0.0,93,0.00,,---,0.00,VWS V14.01,2013-04-10 09:00:00,
2013-04-10 05:03:00,63.4,61.3,30.10,SW,221,1.0,1.0,93,0.00,,---,0.00,VWS V14.01,2013-04-10 09:03:00,
2013-04-10 05:05:00,63.4,61.3,30.10,SW,221,0.0,0.0,93,0.00,,---,0.00,VWS V14.01,2013-04-10 09:05:00,
2013-04-10 05:08:00,63.4,61.3,30.10,SW,221,0.0,0.0,93,0.00,,---,0.00,VWS V14.01,2013-04-10 09:08:00,
2013-04-10 05:10:00,63.4,61.3,30.10,SW,221,0.0,0.0,93,0.00,,---,0.00,VWS V14.01,2013-04-10 09:10:00,
2013-04-10 05:13:00,63.4,61.3,30.10,SW,221,0.0,0.0,93,0.00,,---,0.00,VWS V14.01,2013-04-10 09:13:00,
2013-04-10 05:15:00,63.5,61.8,30.10,SW,221,0.0,0.0,94,0.00,,---,0.00,VWS V14.01,2013-04-10 09:15:00,
2013-04-10 05:18:00,63.4,61.7,30.10,SW,221,0.0,0.0,94,0.00,,---,0.00,VWS V14.01,2013-04-10 09:18:00,
2013-04-10 05:20:00,63.5,61.8,30.10,SW,221,1.0,3.0,94,0.00,,---,0.00,VWS V14.01,2013-04-10 09:20:00,
2013-04-10 05:23:00,63.5,61.8,30.10,SW,221,0.0,3.0,94,0.00,,---,0.00,VWS V14.01,2013-04-10 09:23:00,
2013-04-10 05:25:00,63.6,61.8,30.10,SW,221,0.0,0.0,94,0.00,,---,0.00,VWS V14.01,2013-04-10 09:25:00,
2013-04-10 05:28:00,63.6,61.8,30.10,SW,221,0.0,0.0,94,0.00,,---,0.00,VWS V14.01,2013-04-10 09:28:00,
2013-04-10 05:30:00,63.7,61.9,30.10,SW,221,0.0,1.0,94,0.00,,---,0.00,VWS V14.01,2013-04-10 09:30:00,
2013-04-10 05:33:00,63.7,61.6,30.10,SW,221,0.0,0.0,93,0.00,,---,0.00,VWS V14.01,2013-04-10 09:33:00,
2013-04-10 05:35:00,63.7,61.6,30.10,SW,221,0.0,0.0,93,0.00,,---,0.00,VWS V14.01,2013-04-10 09:35:00,
2013-04-10 05:38:00,63.7,61.6,30.10,SW,221,0.0,0.0,93,0.00,,---,0.00,VWS V14.01,2013-04-10 09:38:00,
2013-04-10 05:40:00,63.7,61.6,30.10,SW,221,0.0,3.0,93,0.00,,---,0.00,VWS V14.01,2013-04-10 09:40:00,
2013-04-10 05:43:00,63.7,62.0,30.10,SW,221,0.0,3.0,94,0.00,,---,0.00,VWS V14.01,2013-04-10 09:43:00,
2013-04-10 05:45:00,63.7,61.9,30.10,SW,221,0.0,3.0,94,0.00,,---,0.00,VWS V14.01,2013-04-10 09:45:00,
2013-04-10 05:48:00,63.6,61.8,30.10,SW,221,0.0,1.0,94,0.00,,---,0.00,VWS V14.01,2013-04-10 09:48:00,
2013-04-10 05:50:00,63.7,61.9,30.10,SW,221,0.0,0.0,94,0.00,,---,0.00,VWS V14.01,2013-04-10 09:50:00,
2013-04-10 05:53:00,63.7,62.0,30.10,SW,221,0.0,0.0,94,0.00,,---,0.00,VWS V14.01,2013-04-10 09:53:00,
2013-04-10 05:55:00,63.7,61.9,30.11,SW,221,0.0,0.0,94,0.00,,---,0.00,VWS V14.01,2013-04-10 09:55:00,
2013-04-10 05:58:00,63.7,62.0,30.11,SW,221,1.0,3.0,94,0.00,,---,0.00,VWS V14.01,2013-04-10 09:58:00,
2013-04-10 06:00:00,63.8,62.0,30.11,SW,221,0.0,3.0,94,0.00,,---,0.00,VWS V14.01,2013-04-10 10:00:00,
2013-04-10 06:03:00,63.8,62.0,30.11,SW,221,0.0,2.0,94,0.00,,---,0.00,VWS V14.01,2013-04-10 10:03:00,
2013-04-10 06:05:00,63.8,62.0,30.11,SW,221,0.0,0.0,94,0.00,,---,0.00,VWS V14.01,2013-04-10 10:05:00,
2013-04-10 06:08:00,63.8,62.0,30.11,SW,221,0.0,0.0,94,0.00,,---,0.00,VWS V14.01,2013-04-10 10:08:00,
2013-04-10 06:10:00,63.9,62.1,30.11,SW,221,0.0,0.0,94,0.00,,---,0.00,VWS V14.01,2013-04-10 10:10:00,
2013-04-10 06:13:00,63.9,62.1,30.11,SW,221,0.0,0.0,94,0.00,,---,0.00,VWS V14.01,2013-04-10 10:13:00,
2013-04-10 06:15:00,63.9,62.1,30.11,SW,221,0.0,0.0,94,0.00,,---,0.00,VWS V14.01,2013-04-10 10:15:00,
2013-04-10 06:18:00,63.9,62.1,30.11,SW,221,0.0,0.0,94,0.00,,---,0.00,VWS V14.01,2013-04-10 10:18:00,
2013-04-10 06:20:00,63.8,62.0,30.11,SW,221,0.0,0.0,94,0.00,,---,0.00,VWS V14.01,2013-04-10 10:20:00,
2013-04-10 06:23:00,63.8,62.0,30.11,SW,221,0.0,0.0,94,0.00,,---,0.00,VWS V14.01,2013-04-10 10:23:00,
2013-04-10 06:25:00,63.6,61.5,30.11,SW,221,0.0,0.0,93,0.00,,---,0.00,VWS V14.01,2013-04-10 10:25:00,
2013-04-10 06:28:00,63.6,61.8,30.11,SW,221,0.0,0.0,94,0.00,,---,0.00,VWS V14.01,2013-04-10 10:28:00,
2013-04-10 06:30:00,63.4,61.3,30.11,SW,221,0.0,0.0,93,0.00,,---,0.00,VWS V14.01,2013-04-10 10:30:00,
2013-04-10 06:33:00,63.4,61.3,30.11,SW,221,0.0,0.0,93,0.00,,---,0.00,VWS V14.01,2013-04-10 10:33:00,
2013-04-10 06:35:00,63.1,61.0,30.12,SW,221,0.0,0.0,93,0.00,,---,0.00,VWS V14.01,2013-04-10 10:35:00,
2013-04-10 06:38:00,63.0,61.0,30.12,SW,221,0.0,0.0,93,0.00,,---,0.00,VWS V14.01,2013-04-10 10:38:00,
2013-04-10 06:40:00,62.8,61.0,30.11,SW,221,2.0,3.0,94,0.00,,---,0.00,VWS V14.01,2013-04-10 10:40:00,
2013-04-10 06:43:00,62.9,61.2,30.11,SW,221,0.0,3.0,94,0.00,,---,0.00,VWS V14.01,2013-04-10 10:43:00,
2013-04-10 06:45:00,63.0,61.2,30.12,SW,221,0.0,1.0,94,0.00,,---,0.00,VWS V14.01,2013-04-10 10:45:00,
2013-04-10 06:48:00,63.1,61.3,30.12,SW,221,0.0,1.0,94,0.00,,---,0.00,VWS V14.01,2013-04-10 10:48:00,
2013-04-10 06:50:00,63.1,61.3,30.12,SW,221,0.0,0.0,94,0.00,,---,0.00,VWS V14.01,2013-04-10 10:50:00,
2013-04-10 06:53:00,63.0,61.2,30.12,SW,221,0.0,0.0,94,0.00,,---,0.00,VWS V14.01,2013-04-10 10:53:00,
2013-04-10 06:55:00,62.9,61.2,30.12,SW,221,0.0,0.0,94,0.00,,---,0.00,VWS V14.01,2013-04-10 10:55:00,
2013-04-10 06:58:00,62.9,61.2,30.12,SW,221,0.0,0.0,94,0.00,,---,0.00,VWS V14.01,2013-04-10 10:58:00,
2013-04-10 07:00:00,62.9,61.5,30.12,SW,221,0.0,0.0,95,0.00,,---,0.00,VWS V14.01,2013-04-10 11:00:00,
2013-04-10 07:03:00,62.8,61.0,30.12,SW,221,0.0,0.0,94,0.00,,---,0.00,VWS V14.01,2013-04-10 11:03:00,
2013-04-10 07:05:00,62.8,61.3,30.12,SW,221,0.0,0.0,95,0.00,,---,0.00,VWS V14.01,2013-04-10 11:05:00,
2013-04-10 07:08:00,62.7,61.2,30.12,SW,221,0.0,0.0,95,0.00,,---,0.00,VWS V14.01,2013-04-10 11:08:00,
2013-04-10 07:15:00,63.3,61.8,30.12,SW,221,0.0,0.0,95,0.00,,---,0.00,VWS V14.01,2013-04-10 11:15:00,
2013-04-10 07:20:00,63.4,62.0,30.12,SW,221,0.0,0.0,95,0.00,,---,0.00,VWS V14.01,2013-04-10 11:20:00,
2013-04-10 07:25:00,63.5,62.0,30.12,SW,221,0.0,0.0,95,0.00,,---,0.00,VWS V14.01,2013-04-10 11:25:00,
2013-04-10 07:30:00,63.8,62.3,30.12,SW,221,0.0,0.0,95,0.00,,---,0.00,VWS V14.01,2013-04-10 11:30:00,
2013-04-10 07:35:00,64.2,62.7,30.12,SW,221,0.0,0.0,95,0.00,,---,0.00,VWS V14.01,2013-04-10 11:35:00,
2013-04-10 07:40:00,64.5,63.3,30.13,SW,221,0.0,0.0,96,0.00,,---,0.00,VWS V14.01,2013-04-10 11:40:00,
2013-04-10 07:45:00,64.9,63.4,30.12,SW,221,0.0,1.0,95,0.00,,---,0.00,VWS V14.01,2013-04-10 11:45:00,
2013-04-10 07:50:00,65.2,63.7,30.12,SW,221,0.0,0.0,95,0.00,,---,0.00,VWS V14.01,2013-04-10 11:50:00,
2013-04-10 07:55:00,65.6,64.4,30.13,SW,221,0.0,1.0,96,0.00,,---,0.00,VWS V14.01,2013-04-10 11:55:00,
2013-04-10 08:00:00,65.8,64.3,30.13,SW,221,0.0,1.0,95,0.00,,---,0.00,VWS V14.01,2013-04-10 12:00:00,
2013-04-10 08:05:00,66.0,64.5,30.14,SW,221,0.0,0.0,95,0.00,,---,0.00,VWS V14.01,2013-04-10 12:05:00,
2013-04-10 08:10:00,66.2,64.7,30.14,SW,221,0.0,1.0,95,0.00,,---,0.00,VWS V14.01,2013-04-10 12:10:00,
2013-04-10 08:15:00,66.3,64.8,30.14,SW,221,0.0,0.0,95,0.00,,---,0.00,VWS V14.01,2013-04-10 12:15:00,
2013-04-10 08:20:00,66.4,64.9,30.14,SW,221,0.0,0.0,95,0.00,,---,0.00,VWS V14.01,2013-04-10 12:20:00,
2013-04-10 08:25:00,66.5,65.0,30.14,SW,221,0.0,0.0,95,0.00,,---,0.00,VWS V14.01,2013-04-10 12:25:00,
2013-04-10 08:30:00,66.3,64.5,30.14,SW,221,0.0,0.0,94,0.00,,---,0.00,VWS V14.01,2013-04-10 12:30:00,
2013-04-10 08:35:00,66.2,64.7,30.14,SW,221,0.0,1.0,95,0.00,,---,0.00,VWS V14.01,2013-04-10 12:35:00,
2013-04-10 08:40:00,66.5,65.0,30.14,SW,221,0.0,0.0,95,0.00,,---,0.00,VWS V14.01,2013-04-10 12:40:00,
2013-04-10 08:45:00,66.9,65.4,30.14,SW,221,0.0,0.0,95,0.00,,---,0.00,VWS V14.01,2013-04-10 12:45:00,
2013-04-10 08:50:00,67.4,65.9,30.14,SW,221,0.0,0.0,95,0.00,,---,0.00,VWS V14.01,2013-04-10 12:50:00,
2013-04-10 08:55:00,67.9,66.1,30.14,SW,221,0.0,0.0,94,0.00,,---,0.00,VWS V14.01,2013-04-10 12:55:00,
2013-04-10 08:56:00,67.8,66.0,30.14,SW,221,0.0,1.0,94,0.00,,---,0.00,VWS V14.01,2013-04-10 12:56:00,
2013-04-10 09:00:00,68.4,66.0,30.14,SW,221,0.0,3.0,92,0.00,,---,0.00,VWS V14.01,2013-04-10 13:00:00,
2013-04-10 09:01:00,68.3,66.2,30.14,SW,221,3.0,3.0,93,0.00,,---,0.00,VWS V14.01,2013-04-10 13:01:00,
2013-04-10 09:05:00,68.9,66.2,30.14,SW,223,4.0,5.0,91,0.00,,---,0.00,VWS V14.01,2013-04-10 13:05:00,
2013-04-10 09:06:00,68.7,66.0,30.14,SW,221,1.0,1.0,91,0.00,,---,0.00,VWS V14.01,2013-04-10 13:06:00,
2013-04-10 09:10:00,69.2,66.2,30.15,SW,231,0.0,6.0,90,0.00,,---,0.00,VWS V14.01,2013-04-10 13:10:00,
2013-04-10 09:11:00,69.2,66.2,30.14,SW,226,0.0,4.0,90,0.00,,---,0.00,VWS V14.01,2013-04-10 13:11:00,
2013-04-10 09:15:00,69.6,65.9,30.15,SW,233,4.0,6.0,88,0.00,,---,0.00,VWS V14.01,2013-04-10 13:15:00,
2013-04-10 09:16:00,69.5,66.1,30.15,SW,232,3.0,6.0,89,0.00,,---,0.00,VWS V14.01,2013-04-10 13:16:00,
2013-04-10 09:20:00,69.7,66.0,30.15,SW,234,3.0,6.0,88,0.00,,---,0.00,VWS V14.01,2013-04-10 13:20:00,
2013-04-10 09:21:00,69.7,66.0,30.15,SW,234,3.0,6.0,88,0.00,,---,0.00,VWS V14.01,2013-04-10 13:21:00,
2013-04-10 09:25:00,69.8,65.8,30.15,SW,236,6.0,6.0,87,0.00,,---,0.00,VWS V14.01,2013-04-10 13:25:00,
2013-04-10 09:26:00,69.8,65.8,30.15,SW,236,2.0,7.0,87,0.00,,---,0.00,VWS V14.01,2013-04-10 13:26:00,
2013-04-10 09:30:00,69.9,65.9,30.15,WSW,243,3.0,8.0,87,0.00,,---,0.00,VWS V14.01,2013-04-10 13:30:00,
2013-04-10 09:31:00,69.8,65.8,30.15,WSW,241,4.0,6.0,87,0.00,,---,0.00,VWS V14.01,2013-04-10 13:31:00,
2013-04-10 09:35:00,70.0,65.6,30.15,WSW,256,3.0,6.0,86,0.00,,---,0.00,VWS V14.01,2013-04-10 13:35:00,
2013-04-10 09:36:00,70.0,65.6,30.15,WSW,256,5.0,5.0,86,0.00,,---,0.00,VWS V14.01,2013-04-10 13:36:00,
2013-04-10 09:40:00,70.2,65.8,30.15,West,259,5.0,5.0,86,0.00,,---,0.00,VWS V14.01,2013-04-10 13:40:00,
2013-04-10 09:41:00,70.1,65.7,30.15,West,259,0.0,6.0,86,0.00,,---,0.00,VWS V14.01,2013-04-10 13:41:00,
2013-04-10 09:45:00,70.6,65.9,30.15,West,259,6.0,8.0,85,0.00,,---,0.00,VWS V14.01,2013-04-10 13:45:00,
2013-04-10 09:46:00,70.5,65.8,30.15,West,259,3.0,8.0,85,0.00,,---,0.00,VWS V14.01,2013-04-10 13:46:00,
2013-04-10 09:50:00,70.9,65.8,30.15,WSW,257,6.0,7.0,84,0.00,,---,0.00,VWS V14.01,2013-04-10 13:50:00,
2013-04-10 09:51:00,70.9,65.8,30.15,WSW,256,1.0,7.0,84,0.00,,---,0.00,VWS V14.01,2013-04-10 13:51:00,
2013-04-10 09:55:00,71.0,65.2,30.15,WSW,256,3.0,10.0,82,0.00,,---,0.00,VWS V14.01,2013-04-10 13:55:00,
2013-04-10 09:57:00,71.0,65.2,30.15,WSW,256,4.0,10.0,82,0.00,,---,0.00,VWS V14.01,2013-04-10 13:57:00,
2013-04-10 10:00:00,71.3,65.5,30.15,WSW,254,5.0,7.0,82,0.00,,---,0.00,VWS V14.01,2013-04-10 14:00:00,
2013-04-10 10:02:00,71.3,65.5,30.15,WSW,254,2.0,7.0,82,0.00,,---,0.00,VWS V14.01,2013-04-10 14:02:00,
2013-04-10 10:05:00,71.3,65.5,30.16,WSW,257,2.0,7.0,82,0.00,,---,0.00,VWS V14.01,2013-04-10 14:05:00,
2013-04-10 10:07:00,71.3,65.5,30.16,WSW,257,5.0,7.0,82,0.00,,---,0.00,VWS V14.01,2013-04-10 14:07:00,
2013-04-10 10:10:00,71.4,65.3,30.16,WSW,258,3.0,10.0,81,0.00,,---,0.00,VWS V14.01,2013-04-10 14:10:00,
2013-04-10 10:12:00,71.4,65.3,30.16,WSW,258,5.0,10.0,81,0.00,,---,0.00,VWS V14.01,2013-04-10 14:12:00,
2013-04-10 10:15:00,71.6,65.5,30.16,West,259,5.0,9.0,81,0.00,,---,0.00,VWS V14.01,2013-04-10 14:15:00,
2013-04-10 10:17:00,71.6,65.5,30.16,West,259,4.0,9.0,81,0.00,,---,0.00,VWS V14.01,2013-04-10 14:17:00,
2013-04-10 10:20:00,71.5,64.7,30.16,West,259,8.0,12.0,79,0.00,,---,0.00,VWS V14.01,2013-04-10 14:20:00,
2013-04-10 10:22:00,71.6,64.8,30.16,West,261,5.0,12.0,79,0.00,,---,0.00,VWS V14.01,2013-04-10 14:22:00,
2013-04-10 10:25:00,71.5,65.0,30.16,WSW,256,3.0,5.0,80,0.00,,---,0.00,VWS V14.01,2013-04-10 14:25:00,
2013-04-10 10:27:00,71.5,65.0,30.16,WSW,256,3.0,5.0,80,0.00,,---,0.00,VWS V14.01,2013-04-10 14:27:00,
2013-04-10 10:30:00,71.9,65.4,30.16,West,264,4.0,9.0,80,0.00,,---,0.00,VWS V14.01,2013-04-10 14:30:00,
2013-04-10 10:32:00,71.9,65.4,30.16,West,264,6.0,9.0,80,0.00,,---,0.00,VWS V14.01,2013-04-10 14:32:00,
2013-04-10 10:35:00,72.1,65.2,30.16,West,261,5.0,8.0,79,0.00,,---,0.00,VWS V14.01,2013-04-10 14:35:00,
2013-04-10 10:37:00,72.1,65.2,30.16,West,261,5.0,8.0,79,0.00,,---,0.00,VWS V14.01,2013-04-10 14:37:00,
2013-04-10 10:40:00,72.1,64.9,30.16,West,259,4.0,11.0,78,0.00,,---,0.00,VWS V14.01,2013-04-10 14:40:00,
2013-04-10 10:42:00,72.1,64.9,30.16,West,259,4.0,11.0,78,0.00,,---,0.00,VWS V14.01,2013-04-10 14:42:00,
2013-04-10 10:45:00,72.3,64.7,30.17,WSW,252,10.0,12.0,77,0.00,,---,0.00,VWS V14.01,2013-04-10 14:45:00,
2013-04-10 10:47:00,72.3,64.7,30.17,WSW,252,10.0,12.0,77,0.00,,---,0.00,VWS V14.01,2013-04-10 14:47:00,
2013-04-10 10:50:00,72.3,65.1,30.17,West,263,7.0,10.0,78,0.00,,---,0.00,VWS V14.01,2013-04-10 14:50:00,
2013-04-10 10:52:00,72.3,65.1,30.17,West,263,7.0,10.0,78,0.00,,---,0.00,VWS V14.01,2013-04-10 14:52:00,
2013-04-10 10:55:00,72.5,64.9,30.17,West,272,1.0,10.0,77,0.00,,---,0.00,VWS V14.01,2013-04-10 14:55:00,
2013-04-10 10:57:00,72.5,64.9,30.17,West,272,1.0,10.0,77,0.00,,---,0.00,VWS V14.01,2013-04-10 14:57:00,
2013-04-10 11:00:00,72.7,64.7,30.16,WSW,252,6.0,7.0,76,0.00,,---,0.00,VWS V14.01,2013-04-10 15:00:00,
2013-04-10 11:02:00,72.7,64.7,30.16,WSW,252,6.0,7.0,76,0.00,,---,0.00,VWS V14.01,2013-04-10 15:02:00,
2013-04-10 11:05:00,72.8,64.8,30.16,WSW,255,10.0,10.0,76,0.00,,---,0.00,VWS V14.01,2013-04-10 15:05:00,
2013-04-10 11:07:00,72.8,64.8,30.16,WSW,255,10.0,10.0,76,0.00,,---,0.00,VWS V14.01,2013-04-10 15:07:00,
2013-04-10 11:10:00,72.9,64.5,30.16,WSW,256,2.0,5.0,75,0.00,,---,0.00,VWS V14.01,2013-04-10 15:10:00,
2013-04-10 11:12:00,72.9,64.5,30.16,WSW,256,2.0,5.0,75,0.00,,---,0.00,VWS V14.01,2013-04-10 15:12:00,
2013-04-10 11:15:00,73.0,64.6,30.16,WSW,256,3.0,9.0,75,0.00,,---,0.00,VWS V14.01,2013-04-10 15:15:00,
2013-04-10 11:17:00,73.0,64.2,30.16,WSW,257,7.0,9.0,74,0.00,,---,0.00,VWS V14.01,2013-04-10 15:17:00,
2013-04-10 11:20:00,72.9,64.9,30.16,West,265,6.0,10.0,76,0.00,,---,0.00,VWS V14.01,2013-04-10 15:20:00,
2013-04-10 11:22:00,72.9,64.9,30.16,West,265,6.0,10.0,76,0.00,,---,0.00,VWS V14.01,2013-04-10 15:22:00,
2013-04-10 11:25:00,72.9,63.8,30.16,West,266,3.0,11.0,73,0.00,,---,0.00,VWS V14.01,2013-04-10 15:25:00,
2013-04-10 11:27:00,72.8,63.7,30.16,West,266,4.0,11.0,73,0.00,,---,0.00,VWS V14.01,2013-04-10 15:27:00,
2013-04-10 11:30:00,72.7,63.9,30.16,West,263,7.0,7.0,74,0.00,,---,0.00,VWS V14.01,2013-04-10 15:30:00,
2013-04-10 11:32:00,72.7,63.9,30.16,West,263,6.0,7.0,74,0.00,,---,0.00,VWS V14.01,2013-04-10 15:32:00,
2013-04-10 11:35:00,72.9,63.8,30.16,West,260,5.0,8.0,73,0.00,,---,0.00,VWS V14.01,2013-04-10 15:35:00,
2013-04-10 11:37:00,72.9,63.8,30.16,West,260,4.0,8.0,73,0.00,,---,0.00,VWS V14.01,2013-04-10 15:37:00,
2013-04-10 11:40:00,73.3,64.1,30.15,WSW,251,0.0,10.0,73,0.00,,---,0.00,VWS V14.01,2013-04-10 15:40:00,
2013-04-10 11:42:00,73.3,64.1,30.15,WSW,251,2.0,10.0,73,0.00,,---,0.00,VWS V14.01,2013-04-10 15:42:00,
2013-04-10 11:45:00,73.6,64.8,30.16,WSW,250,2.0,4.0,74,0.00,,---,0.00,VWS V14.01,2013-04-10 15:45:00,
2013-04-10 11:47:00,73.6,64.8,30.16,WSW,251,1.0,4.0,74,0.00,,---,0.00,VWS V14.01,2013-04-10 15:47:00,
2013-04-10 11:50:00,73.7,64.1,30.16,West,265,9.0,9.0,72,0.00,,---,0.00,VWS V14.01,2013-04-10 15:50:00,
2013-04-10 11:52:00,73.7,64.1,30.16,West,264,6.0,11.0,72,0.00,,---,0.00,VWS V14.01,2013-04-10 15:52:00,
2013-04-10 11:55:00,73.8,64.6,30.16,West,263,1.0,6.0,73,0.00,,---,0.00,VWS V14.01,2013-04-10 15:55:00,
2013-04-10 11:57:00,73.8,64.6,30.16,West,263,1.0,6.0,73,0.00,,---,0.00,VWS V14.01,2013-04-10 15:57:00,
2013-04-10 12:00:00,73.9,63.1,30.16,West,264,4.0,12.0,69,0.00,,---,0.00,VWS V14.01,2013-04-10 16:00:00,
2013-04-10 12:02:00,73.8,63.4,30.15,West,267,5.0,12.0,70,0.00,,---,0.00,VWS V14.01,2013-04-10 16:02:00,
2013-04-10 12:05:00,73.8,63.8,30.15,West,267,1.0,7.0,71,0.00,,---,0.00,VWS V14.01,2013-04-10 16:05:00,
2013-04-10 12:07:00,73.8,64.2,30.15,West,267,2.0,7.0,72,0.00,,---,0.00,VWS V14.01,2013-04-10 16:07:00,
2013-04-10 12:10:00,74.0,63.2,30.15,SW,232,6.0,7.0,69,0.00,,---,0.00,VWS V14.01,2013-04-10 16:10:00,
2013-04-10 12:12:00,73.9,63.1,30.15,SW,230,4.0,7.0,69,0.00,,---,0.00,VWS V14.01,2013-04-10 16:12:00,
2013-04-10 12:15:00,73.9,62.7,30.15,SW,227,6.0,6.0,68,0.00,,---,0.00,VWS V14.01,2013-04-10 16:15:00,
2013-04-10 12:17:00,73.9,62.7,30.15,SW,227,4.0,6.0,68,0.00,,---,0.00,VWS V14.01,2013-04-10 16:17:00,
2013-04-10 12:20:00,73.7,62.1,30.15,WSW,244,1.0,12.0,67,0.00,,---,0.00,VWS V14.01,2013-04-10 16:20:00,
2013-04-10 12:22:00,73.7,62.1,30.15,WSW,244,4.0,12.0,67,0.00,,---,0.00,VWS V14.01,2013-04-10 16:22:00,
2013-04-10 12:25:00,73.3,62.5,30.15,West,271,5.0,8.0,69,0.00,,---,0.00,VWS V14.01,2013-04-10 16:25:00,
2013-04-10 12:28:00,73.3,62.5,30.15,West,271,2.0,8.0,69,0.00,,---,0.00,VWS V14.01,2013-04-10 16:28:00,
2013-04-10 12:30:00,74.2,64.6,30.15,SW,227,1.0,10.0,72,0.00,,---,0.00,VWS V14.01,2013-04-10 16:30:00,
2013-04-10 12:33:00,74.2,63.4,30.15,SW,226,0.0,10.0,69,0.00,,---,0.00,VWS V14.01,2013-04-10 16:33:00,
2013-04-10 12:35:00,74.2,62.5,30.15,SW,235,7.0,7.0,67,0.00,,---,0.00,VWS V14.01,2013-04-10 16:35:00,
2013-04-10 12:38:00,74.1,62.5,30.15,WSW,240,4.0,9.0,67,0.00,,---,0.00,VWS V14.01,2013-04-10 16:38:00,
2013-04-10 12:40:00,74.0,62.8,30.14,SSW,211,3.0,7.0,68,0.00,,---,0.00,VWS V14.01,2013-04-10 16:40:00,
2013-04-10 12:43:00,74.1,62.9,30.14,WSW,238,6.0,6.0,68,0.00,,---,0.00,VWS V14.01,2013-04-10 16:43:00,
2013-04-10 12:45:00,73.8,62.2,30.14,West,267,10.0,10.0,67,0.00,,---,0.00,VWS V14.01,2013-04-10 16:45:00,
2013-04-10 12:48:00,73.7,61.7,30.15,West,265,7.0,10.0,66,0.00,,---,0.00,VWS V14.01,2013-04-10 16:48:00,
2013-04-10 12:50:00,73.8,62.2,30.15,SW,232,6.0,9.0,67,0.00,,---,0.00,VWS V14.01,2013-04-10 16:50:00,
2013-04-10 12:53:00,73.8,62.2,30.14,WSW,238,5.0,9.0,67,0.00,,---,0.00,VWS V14.01,2013-04-10 16:53:00,
2013-04-10 12:55:00,73.8,62.2,30.14,WSW,250,0.0,5.0,67,0.00,,---,0.00,VWS V14.01,2013-04-10 16:55:00,
2013-04-10 12:58:00,73.8,62.6,30.14,WSW,250,1.0,5.0,68,0.00,,---,0.00,VWS V14.01,2013-04-10 16:58:00,
2013-04-10 13:00:00,74.2,62.5,30.14,SW,223,0.0,8.0,67,0.00,,---,0.00,VWS V14.01,2013-04-10 17:00:00,
2013-04-10 13:03:00,74.4,63.2,30.14,SW,225,4.0,5.0,68,0.00,,---,0.00,VWS V14.01,2013-04-10 17:03:00,
2013-04-10 13:05:00,74.3,63.5,30.14,WSW,237,0.0,7.0,69,0.00,,---,0.00,VWS V14.01,2013-04-10 17:05:00,
2013-04-10 13:08:00,74.5,63.7,30.14,WSW,237,0.0,7.0,69,0.00,,---,0.00,VWS V14.01,2013-04-10 17:08:00,
2013-04-10 13:10:00,74.5,62.0,30.14,SW,215,4.0,9.0,65,0.00,,---,0.00,VWS V14.01,2013-04-10 17:10:00,
2013-04-10 13:13:00,74.3,62.2,30.14,WSW,245,1.0,9.0,66,0.00,,---,0.00,VWS V14.01,2013-04-10 17:13:00,
2013-04-10 13:15:00,74.8,64.0,30.14,WSW,253,4.0,9.0,69,0.00,,---,0.00,VWS V14.01,2013-04-10 17:15:00,
2013-04-10 13:18:00,74.9,62.8,30.14,SW,217,1.0,10.0,66,0.00,,---,0.00,VWS V14.01,2013-04-10 17:18:00,
2013-04-10 13:20:00,75.0,63.3,30.14,West,269,1.0,13.0,67,0.00,,---,0.00,VWS V14.01,2013-04-10 17:20:00,
2013-04-10 13:23:00,74.9,62.3,30.14,WSW,253,0.0,9.0,65,0.00,,---,0.00,VWS V14.01,2013-04-10 17:23:00,
2013-04-10 13:25:00,74.9,63.6,30.14,WSW,250,9.0,9.0,68,0.00,,---,0.00,VWS V14.01,2013-04-10 17:25:00,
2013-04-10 13:28:00,74.9,62.8,30.14,West,265,7.0,9.0,66,0.00,,---,0.00,VWS V14.01,2013-04-10 17:28:00,
2013-04-10 13:30:00,74.9,62.8,30.14,WSW,254,5.0,6.0,66,0.00,,---,0.00,VWS V14.01,2013-04-10 17:30:00,
2013-04-10 13:33:00,74.8,62.7,30.14,WSW,255,9.0,9.0,66,0.00,,---,0.00,VWS V14.01,2013-04-10 17:33:00,
2013-04-10 13:35:00,74.6,62.9,30.14,West,267,4.0,5.0,67,0.00,,---,0.00,VWS V14.01,2013-04-10 17:35:00,
2013-04-10 13:38:00,74.8,63.5,30.14,West,267,3.0,6.0,68,0.00,,---,0.00,VWS V14.01,2013-04-10 17:38:00,
2013-04-10 13:40:00,74.5,62.4,30.14,West,265,6.0,10.0,66,0.00,,---,0.00,VWS V14.01,2013-04-10 17:40:00,
2013-04-10 13:43:00,74.4,63.2,30.14,WSW,251,6.0,10.0,68,0.00,,---,0.00,VWS V14.01,2013-04-10 17:43:00,
2013-04-10 13:45:00,74.4,63.2,30.14,WSW,245,0.0,6.0,68,0.00,,---,0.00,VWS V14.01,2013-04-10 17:45:00,
2013-04-10 13:48:00,74.6,62.9,30.14,WSW,256,6.0,6.0,67,0.00,,---,0.00,VWS V14.01,2013-04-10 17:48:00,
2013-04-10 13:50:00,75.1,63.8,30.13,WSW,258,0.0,0.0,68,0.00,,---,0.00,VWS V14.01,2013-04-10 17:50:00,
2013-04-10 13:53:00,75.2,63.9,30.13,WSW,254,0.0,2.0,68,0.00,,---,0.00,VWS V14.01,2013-04-10 17:53:00,
2013-04-10 13:55:00,75.3,64.0,30.13,WSW,251,0.0,6.0,68,0.00,,---,0.00,VWS V14.01,2013-04-10 17:55:00,
2013-04-10 13:58:00,75.4,63.7,30.13,WSW,255,2.0,5.0,67,0.00,,---,0.00,VWS V14.01,2013-04-10 17:58:00,
2013-04-10 14:00:00,75.6,64.3,30.13,SW,233,2.0,8.0,68,0.00,,---,0.00,VWS V14.01,2013-04-10 18:00:00,
2013-04-10 14:03:00,75.6,63.5,30.13,West,269,3.0,10.0,66,0.00,,---,0.00,VWS V14.01,2013-04-10 18:03:00,
2013-04-10 14:05:00,75.7,64.8,30.13,WSW,252,0.0,10.0,69,0.00,,---,0.00,VWS V14.01,2013-04-10 18:05:00,
2013-04-10 14:08:00,75.7,63.5,30.12,WSW,253,4.0,10.0,66,0.00,,---,0.00,VWS V14.01,2013-04-10 18:08:00,
2013-04-10 14:10:00,75.4,63.3,30.12,SSW,209,2.0,4.0,66,0.00,,---,0.00,VWS V14.01,2013-04-10 18:10:00,
2013-04-10 14:13:00,75.4,63.3,30.12,South,175,5.0,7.0,66,0.00,,---,0.00,VWS V14.01,2013-04-10 18:13:00,
2013-04-10 14:15:00,75.5,64.2,30.12,South,172,6.0,6.0,68,0.00,,---,0.00,VWS V14.01,2013-04-10 18:15:00,
2013-04-10 14:18:00,75.7,64.0,30.12,SW,234,0.0,6.0,67,0.00,,---,0.00,VWS V14.01,2013-04-10 18:18:00,
2013-04-10 14:20:00,75.8,64.5,30.12,SW,223,0.0,7.0,68,0.00,,---,0.00,VWS V14.01,2013-04-10 18:20:00,
2013-04-10 14:23:00,75.8,63.6,30.12,SW,218,0.0,5.0,66,0.00,,---,0.00,VWS V14.01,2013-04-10 18:23:00,
2013-04-10 14:25:00,75.9,63.7,30.11,SW,227,0.0,9.0,66,0.00,,---,0.00,VWS V14.01,2013-04-10 18:25:00,
2013-04-10 14:28:00,75.8,63.2,30.11,WSW,245,0.0,7.0,65,0.00,,---,0.00,VWS V14.01,2013-04-10 18:28:00,
2013-04-10 14:30:00,75.5,62.5,30.11,South,184,4.0,9.0,64,0.00,,---,0.00,VWS V14.01,2013-04-10 18:30:00,
2013-04-10 14:33:00,75.4,62.8,30.11,South,176,0.0,9.0,65,0.00,,---,0.00,VWS V14.01,2013-04-10 18:33:00,
2013-04-10 14:35:00,75.5,63.4,30.11,South,184,0.0,9.0,66,0.00,,---,0.00,VWS V14.01,2013-04-10 18:35:00,
2013-04-10 14:38:00,75.4,63.3,30.11,South,188,4.0,5.0,66,0.00,,---,0.00,VWS V14.01,2013-04-10 18:38:00,
2013-04-10 14:40:00,75.1,63.0,30.10,SW,230,7.0,7.0,66,0.00,,---,0.00,VWS V14.01,2013-04-10 18:40:00,
2013-04-10 14:43:00,74.9,62.8,30.11,West,265,10.0,13.0,66,0.00,,---,0.00,VWS V14.01,2013-04-10 18:43:00,
2013-04-10 14:45:00,74.8,64.0,30.10,WSW,244,6.0,10.0,69,0.00,,---,0.00,VWS V14.01,2013-04-10 18:45:00,
2013-04-10 14:48:00,74.8,63.1,30.10,SSW,209,0.0,11.0,67,0.00,,---,0.00,VWS V14.01,2013-04-10 18:48:00,
2013-04-10 14:50:00,75.1,63.8,30.10,WSW,253,12.0,12.0,68,0.00,,---,0.00,VWS V14.01,2013-04-10 18:50:00,
2013-04-10 14:53:00,75.0,63.3,30.10,WSW,250,0.0,12.0,67,0.00,,---,0.00,VWS V14.01,2013-04-10 18:53:00,
2013-04-10 14:55:00,75.2,63.1,30.10,SW,221,8.0,9.0,66,0.00,,---,0.00,VWS V14.01,2013-04-10 18:55:00,
2013-04-10 14:58:00,75.2,63.1,30.10,SSW,205,0.0,9.0,66,0.00,,---,0.00,VWS V14.01,2013-04-10 18:58:00,
2013-04-10 15:00:00,75.5,63.4,30.10,ESE,117,0.0,0.0,66,0.00,,---,0.00,VWS V14.01,2013-04-10 19:00:00,
2013-04-10 15:03:00,75.5,63.8,30.10,SSW,198,1.0,9.0,67,0.00,,---,0.00,VWS V14.01,2013-04-10 19:03:00,
2013-04-10 15:05:00,75.7,63.5,30.10,SW,229,10.0,10.0,66,0.00,,---,0.00,VWS V14.01,2013-04-10 19:05:00,
2013-04-10 15:08:00,75.5,62.5,30.10,SW,223,0.0,10.0,64,0.00,,---,0.00,VWS V14.01,2013-04-10 19:08:00,
2013-04-10 15:10:00,75.4,62.8,30.10,SSW,194,0.0,7.0,65,0.00,,---,0.00,VWS V14.01,2013-04-10 19:10:00,
2013-04-10 15:13:00,75.3,62.7,30.10,SE,136,0.0,6.0,65,0.00,,---,0.00,VWS V14.01,2013-04-10 19:13:00,
2013-04-10 15:15:00,75.4,63.3,30.10,SSE,153,1.0,5.0,66,0.00,,---,0.00,VWS V14.01,2013-04-10 19:15:00,
2013-04-10 15:18:00,75.5,63.8,30.09,SSE,159,0.0,4.0,67,0.00,,---,0.00,VWS V14.01,2013-04-10 19:18:00,
2013-04-10 15:20:00,75.3,62.3,30.09,SSW,209,7.0,9.0,64,0.00,,---,0.00,VWS V14.01,2013-04-10 19:20:00,
2013-04-10 15:23:00,75.1,62.5,30.09,SW,231,0.0,7.0,65,0.00,,---,0.00,VWS V14.01,2013-04-10 19:23:00,
2013-04-10 15:25:00,74.6,62.5,30.09,SSE,149,4.0,10.0,66,0.00,,---,0.00,VWS V14.01,2013-04-10 19:25:00,
2013-04-10 15:28:00,74.6,62.9,30.09,WSW,239,4.0,6.0,67,0.00,,---,0.00,VWS V14.01,2013-04-10 19:28:00,
2013-04-10 15:30:00,74.9,63.2,30.09,South,173,3.0,7.0,67,0.00,,---,0.00,VWS V14.01,2013-04-10 19:30:00,
2013-04-10 15:33:00,74.9,62.8,30.09,SSW,192,0.0,5.0,66,0.00,,---,0.00,VWS V14.01,2013-04-10 19:33:00,
2013-04-10 15:35:00,74.9,62.8,30.09,South,190,0.0,3.0,66,0.00,,---,0.00,VWS V14.01,2013-04-10 19:35:00,
2013-04-10 15:38:00,74.9,63.6,30.09,SSW,211,0.0,4.0,68,0.00,,---,0.00,VWS V14.01,2013-04-10 19:38:00,
2013-04-10 15:40:00,75.4,63.7,30.09,SSW,207,0.0,0.0,67,0.00,,---,0.00,VWS V14.01,2013-04-10 19:40:00,
2013-04-10 15:43:00,75.5,63.4,30.09,SE,140,0.0,3.0,66,0.00,,---,0.00,VWS V14.01,2013-04-10 19:43:00,
2013-04-10 15:45:00,75.4,63.7,30.09,SE,146,0.0,2.0,67,0.00,,---,0.00,VWS V14.01,2013-04-10 19:45:00,
2013-04-10 15:48:00,75.4,63.7,30.09,SE,146,1.0,3.0,67,0.00,,---,0.00,VWS V14.01,2013-04-10 19:48:00,
2013-04-10 15:50:00,75.3,63.6,30.08,SE,144,0.0,2.0,67,0.00,,---,0.00,VWS V14.01,2013-04-10 19:50:00,
2013-04-10 15:53:00,75.3,63.6,30.08,South,176,2.0,2.0,67,0.00,,---,0.00,VWS V14.01,2013-04-10 19:53:00,
2013-04-10 15:55:00,75.4,64.1,30.08,WSW,248,2.0,2.0,68,0.00,,---,0.00,VWS V14.01,2013-04-10 19:55:00,
2013-04-10 15:58:00,75.5,63.8,30.08,SSE,165,0.0,4.0,67,0.00,,---,0.00,VWS V14.01,2013-04-10 19:58:00,
2013-04-10 16:00:00,75.5,63.4,30.08,WSW,250,0.0,5.0,66,0.00,,---,0.00,VWS V14.01,2013-04-10 20:00:00,
2013-04-10 16:04:00,75.5,63.8,30.08,SW,223,0.0,3.0,67,0.00,,---,0.00,VWS V14.01,2013-04-10 20:04:00,
2013-04-10 16:05:00,75.7,64.0,30.08,SW,222,1.0,1.0,67,0.00,,---,0.00,VWS V14.01,2013-04-10 20:05:00,
2013-04-10 16:09:00,75.5,63.8,30.08,SE,141,1.0,4.0,67,0.00,,---,0.00,VWS V14.01,2013-04-10 20:09:00,
2013-04-10 16:10:00,74.9,62.8,30.08,SW,232,1.0,5.0,66,0.00,,---,0.00,VWS V14.01,2013-04-10 20:10:00,
2013-04-10 16:14:00,74.9,63.6,30.08,WSW,239,1.0,4.0,68,0.00,,---,0.00,VWS V14.01,2013-04-10 20:14:00,
2013-04-10 16:15:00,75.0,63.7,30.08,SW,234,0.0,2.0,68,0.00,,---,0.00,VWS V14.01,2013-04-10 20:15:00,
2013-04-10 16:19:00,75.2,63.9,30.07,South,178,0.0,4.0,68,0.00,,---,0.00,VWS V14.01,2013-04-10 20:19:00,
2013-04-10 16:20:00,75.1,63.4,30.07,SE,140,0.0,4.0,67,0.00,,---,0.00,VWS V14.01,2013-04-10 20:20:00,
2013-04-10 16:24:00,74.9,63.2,30.07,SSE,165,1.0,2.0,67,0.00,,---,0.00,VWS V14.01,2013-04-10 20:24:00,
2013-04-10 16:25:00,74.7,63.0,30.07,SSW,203,1.0,4.0,67,0.00,,---,0.00,VWS V14.01,2013-04-10 20:25:00,
2013-04-10 16:29:00,74.5,62.8,30.07,SE,140,0.0,5.0,67,0.00,,---,0.00,VWS V14.01,2013-04-10 20:29:00,
2013-04-10 16:30:00,74.5,63.7,30.07,SE,141,0.0,2.0,69,0.00,,---,0.00,VWS V14.01,2013-04-10 20:30:00,
2013-04-10 16:34:00,74.7,63.9,30.07,SE,142,2.0,2.0,69,0.00,,---,0.00,VWS V14.01,2013-04-10 20:34:00,
2013-04-10 16:35:00,74.8,63.1,30.07,South,182,3.0,3.0,67,0.00,,---,0.00,VWS V14.01,2013-04-10 20:35:00,
2013-04-10 16:39:00,74.8,63.1,30.07,South,181,2.0,2.0,67,0.00,,---,0.00,VWS V14.01,2013-04-10 20:39:00,
2013-04-10 16:40:00,74.8,63.1,30.07,South,188,0.0,4.0,67,0.00,,---,0.00,VWS V14.01,2013-04-10 20:40:00,
2013-04-10 16:45:00,74.5,62.8,30.06,SSW,202,2.0,7.0,67,0.00,,---,0.00,VWS V14.01,2013-04-10 20:45:00,
2013-04-10 16:50:00,74.4,63.2,30.06,SSW,192,0.0,5.0,68,0.00,,---,0.00,VWS V14.01,2013-04-10 20:50:00,
2013-04-10 16:55:00,74.3,63.1,30.06,SSW,211,1.0,4.0,68,0.00,,---,0.00,VWS V14.01,2013-04-10 20:55:00,
2013-04-10 17:00:00,74.4,63.6,30.06,SSW,196,3.0,6.0,69,0.00,,---,0.00,VWS V14.01,2013-04-10 21:00:00,
2013-04-10 17:05:00,74.2,63.4,30.06,SW,215,0.0,7.0,69,0.00,,---,0.00,VWS V14.01,2013-04-10 21:05:00,
2013-04-10 17:10:00,74.3,63.9,30.06,SW,215,6.0,6.0,70,0.00,,---,0.00,VWS V14.01,2013-04-10 21:10:00,
2013-04-10 17:15:00,74.2,63.8,30.06,SSW,202,0.0,6.0,70,0.00,,---,0.00,VWS V14.01,2013-04-10 21:15:00,
2013-04-10 17:20:00,74.0,63.6,30.06,South,182,2.0,4.0,70,0.00,,---,0.00,VWS V14.01,2013-04-10 21:20:00,
2013-04-10 17:25:00,74.1,64.1,30.06,South,186,0.0,5.0,71,0.00,,---,0.00,VWS V14.01,2013-04-10 21:25:00,
2013-04-10 17:30:00,73.8,63.8,30.06,WSW,240,0.0,5.0,71,0.00,,---,0.00,VWS V14.01,2013-04-10 21:30:00,
2013-04-10 17:35:00,73.8,63.4,30.06,SSW,211,7.0,7.0,70,0.00,,---,0.00,VWS V14.01,2013-04-10 21:35:00,
2013-04-10 17:40:00,73.7,64.1,30.06,SSW,207,0.0,3.0,72,0.00,,---,0.00,VWS V14.01,2013-04-10 21:40:00,
2013-04-10 17:45:00,73.7,64.1,30.06,SSW,207,0.0,4.0,72,0.00,,---,0.00,VWS V14.01,2013-04-10 21:45:00,
2013-04-10 17:50:00,74.0,64.0,30.06,SSW,201,4.0,5.0,71,0.00,,---,0.00,VWS V14.01,2013-04-10 21:50:00,
2013-04-10 17:55:00,73.9,64.3,30.06,SW,219,0.0,5.0,72,0.00,,---,0.00,VWS V14.01,2013-04-10 21:55:00,
2013-04-10 18:00:00,73.7,64.1,30.06,SSW,195,0.0,3.0,72,0.00,,---,0.00,VWS V14.01,2013-04-10 22:00:00,
2013-04-10 18:05:00,73.9,64.7,30.06,SSW,196,2.0,3.0,73,0.00,,---,0.00,VWS V14.01,2013-04-10 22:05:00,
2013-04-10 18:10:00,73.4,64.2,30.06,SSW,212,2.0,4.0,73,0.00,,---,0.00,VWS V14.01,2013-04-10 22:10:00,
2013-04-10 18:15:00,73.3,64.5,30.06,SSW,204,0.0,0.0,74,0.00,,---,0.00,VWS V14.01,2013-04-10 22:15:00,
2013-04-10 18:20:00,73.4,64.6,30.06,SSW,202,0.0,2.0,74,0.00,,---,0.00,VWS V14.01,2013-04-10 22:20:00,
2013-04-10 18:25:00,73.3,64.1,30.06,SSW,205,0.0,1.0,73,0.00,,---,0.00,VWS V14.01,2013-04-10 22:25:00,
2013-04-10 18:30:00,73.1,64.3,30.06,SSW,205,2.0,5.0,74,0.00,,---,0.00,VWS V14.01,2013-04-10 22:30:00,
2013-04-10 18:35:00,73.0,64.6,30.05,SSW,203,0.0,1.0,75,0.00,,---,0.00,VWS V14.01,2013-04-10 22:35:00,
2013-04-10 18:40:00,72.8,64.4,30.05,SSW,203,0.0,1.0,75,0.00,,---,0.00,VWS V14.01,2013-04-10 22:40:00,
2013-04-10 18:45:00,72.1,64.1,30.05,South,186,0.0,8.0,76,0.00,,---,0.00,VWS V14.01,2013-04-10 22:45:00,
2013-04-10 18:50:00,72.1,64.5,30.05,South,186,0.0,0.0,77,0.00,,---,0.00,VWS V14.01,2013-04-10 22:50:00,
2013-04-10 18:55:00,72.1,64.5,30.05,South,186,0.0,0.0,77,0.00,,---,0.00,VWS V14.01,2013-04-10 22:55:00,
2013-04-10 19:00:00,71.7,64.5,30.04,South,186,0.0,0.0,78,0.00,,---,0.00,VWS V14.01,2013-04-10 23:00:00,
2013-04-10 19:05:00,71.7,64.5,30.04,South,186,0.0,0.0,78,0.00,,---,0.00,VWS V14.01,2013-04-10 23:05:00,
2013-04-10 19:10:00,71.5,64.7,30.04,South,186,0.0,0.0,79,0.00,,---,0.00,VWS V14.01,2013-04-10 23:10:00,
2013-04-10 19:15:00,71.2,64.4,30.04,South,186,0.0,0.0,79,0.00,,---,0.00,VWS V14.01,2013-04-10 23:15:00,
2013-04-10 19:20:00,71.0,64.5,30.04,South,186,0.0,0.0,80,0.00,,---,0.00,VWS V14.01,2013-04-10 23:20:00,
2013-04-10 19:25:00,70.8,64.7,30.04,South,186,0.0,0.0,81,0.00,,---,0.00,VWS V14.01,2013-04-10 23:25:00,
2013-04-10 19:30:00,70.5,64.4,30.04,South,186,0.0,1.0,81,0.00,,---,0.00,VWS V14.01,2013-04-10 23:30:00,
2013-04-10 19:35:00,70.1,64.4,30.04,South,186,0.0,0.0,82,0.00,,---,0.00,VWS V14.01,2013-04-10 23:35:00,
2013-04-10 19:40:00,69.8,64.4,30.04,South,186,0.0,0.0,83,0.00,,---,0.00,VWS V14.01,2013-04-10 23:40:00,
2013-04-10 19:45:00,69.6,64.2,30.04,South,186,0.0,0.0,83,0.00,,---,0.00,VWS V14.01,2013-04-10 23:45:00,
2013-04-10 19:50:00,69.3,64.3,30.04,South,186,0.0,0.0,84,0.00,,---,0.00,VWS V14.01,2013-04-10 23:50:00,
2013-04-10 19:55:00,69.0,64.0,30.04,South,186,0.0,0.0,84,0.00,,---,0.00,VWS V14.01,2013-04-10 23:55:00,
2013-04-10 20:00:00,68.8,64.1,30.04,South,186,0.0,0.0,85,0.00,,---,0.00,VWS V14.01,2013-04-11 00:00:00,
2013-04-10 20:05:00,68.5,64.2,30.04,South,186,0.0,0.0,86,0.00,,---,0.00,VWS V14.01,2013-04-11 00:05:00,
2013-04-10 20:10:00,68.3,64.0,30.04,South,186,0.0,0.0,86,0.00,,---,0.00,VWS V14.01,2013-04-11 00:10:00,
2013-04-10 20:15:00,68.2,64.2,30.04,South,186,0.0,0.0,87,0.00,,---,0.00,VWS V14.01,2013-04-11 00:15:00,
2013-04-10 20:20:00,68.0,64.0,30.05,South,186,0.0,0.0,87,0.00,,---,0.00,VWS V14.01,2013-04-11 00:20:00,
2013-04-10 20:21:00,68.0,64.0,30.05,South,186,0.0,0.0,87,0.00,,---,0.00,VWS V14.01,2013-04-11 00:21:00,
2013-04-10 20:25:00,67.8,64.1,30.05,South,186,0.0,0.0,88,0.00,,---,0.00,VWS V14.01,2013-04-11 00:25:00,
2013-04-10 20:26:00,67.9,64.2,30.05,South,186,0.0,0.0,88,0.00,,---,0.00,VWS V14.01,2013-04-11 00:26:00,
2013-04-10 20:30:00,67.7,64.0,30.05,South,186,0.0,0.0,88,0.00,,---,0.00,VWS V14.01,2013-04-11 00:30:00,
2013-04-10 20:31:00,67.7,64.0,30.05,South,186,0.0,0.0,88,0.00,,---,0.00,VWS V14.01,2013-04-11 00:31:00,
2013-04-10 20:35:00,67.6,64.2,30.05,South,186,0.0,0.0,89,0.00,,---,0.00,VWS V14.01,2013-04-11 00:35:00,
2013-04-10 20:36:00,67.6,63.9,30.04,South,186,0.0,0.0,88,0.00,,---,0.00,VWS V14.01,2013-04-11 00:36:00,
2013-04-10 20:40:00,67.5,64.2,30.04,South,186,0.0,0.0,89,0.00,,---,0.00,VWS V14.01,2013-04-11 00:40:00,
2013-04-10 20:41:00,67.5,64.2,30.05,South,186,0.0,0.0,89,0.00,,---,0.00,VWS V14.01,2013-04-11 00:41:00,
2013-04-10 20:45:00,67.3,64.0,30.04,South,186,0.0,0.0,89,0.00,,---,0.00,VWS V14.01,2013-04-11 00:45:00,
2013-04-10 20:46:00,67.4,64.1,30.04,South,186,0.0,0.0,89,0.00,,---,0.00,VWS V14.01,2013-04-11 00:46:00,
2013-04-10 20:50:00,67.2,63.8,30.04,South,186,0.0,0.0,89,0.00,,---,0.00,VWS V14.01,2013-04-11 00:50:00,
2013-04-10 20:51:00,67.2,63.8,30.04,South,186,0.0,0.0,89,0.00,,---,0.00,VWS V14.01,2013-04-11 00:51:00,
2013-04-10 20:55:00,67.2,64.2,30.04,South,186,0.0,0.0,90,0.00,,---,0.00,VWS V14.01,2013-04-11 00:55:00,
2013-04-10 20:56:00,67.2,63.8,30.04,South,186,0.0,0.0,89,0.00,,---,0.00,VWS V14.01,2013-04-11 00:56:00,
2013-04-10 21:00:00,67.1,64.1,30.04,South,186,0.0,0.0,90,0.00,,---,0.00,VWS V14.01,2013-04-11 01:00:00,
2013-04-10 21:01:00,67.1,64.1,30.04,South,186,0.0,0.0,90,0.00,,---,0.00,VWS V14.01,2013-04-11 01:01:00,
2013-04-10 21:05:00,67.0,64.0,30.04,South,186,0.0,0.0,90,0.00,,---,0.00,VWS V14.01,2013-04-11 01:05:00,
2013-04-10 21:06:00,67.0,64.0,30.04,South,186,0.0,0.0,90,0.00,,---,0.00,VWS V14.01,2013-04-11 01:06:00,
2013-04-10 21:10:00,66.9,63.9,30.04,South,186,0.0,0.0,90,0.00,,---,0.00,VWS V14.01,2013-04-11 01:10:00,
2013-04-10 21:11:00,67.0,64.0,30.04,South,186,0.0,0.0,90,0.00,,---,0.00,VWS V14.01,2013-04-11 01:11:00,
2013-04-10 21:15:00,66.9,64.2,30.04,South,186,0.0,0.0,91,0.00,,---,0.00,VWS V14.01,2013-04-11 01:15:00,
2013-04-10 21:16:00,66.9,64.2,30.04,South,186,0.0,0.0,91,0.00,,---,0.00,VWS V14.01,2013-04-11 01:16:00,
2013-04-10 21:20:00,66.8,64.1,30.04,South,186,0.0,0.0,91,0.00,,---,0.00,VWS V14.01,2013-04-11 01:20:00,
2013-04-10 21:21:00,66.8,64.1,30.04,South,186,0.0,0.0,91,0.00,,---,0.00,VWS V14.01,2013-04-11 01:21:00,
2013-04-10 21:25:00,66.8,64.1,30.04,South,186,0.0,0.0,91,0.00,,---,0.00,VWS V14.01,2013-04-11 01:25:00,
2013-04-10 21:26:00,66.8,64.1,30.04,South,186,0.0,0.0,91,0.00,,---,0.00,VWS V14.01,2013-04-11 01:26:00,
2013-04-10 21:30:00,66.8,64.4,30.04,South,186,0.0,2.0,92,0.00,,---,0.00,VWS V14.01,2013-04-11 01:30:00,
2013-04-10 21:32:00,66.9,64.5,30.04,South,186,0.0,2.0,92,0.00,,---,0.00,VWS V14.01,2013-04-11 01:32:00,
2013-04-10 21:35:00,66.8,64.4,30.04,South,186,0.0,0.0,92,0.00,,---,0.00,VWS V14.01,2013-04-11 01:35:00,
2013-04-10 21:37:00,66.9,64.5,30.04,South,186,0.0,0.0,92,0.00,,---,0.00,VWS V14.01,2013-04-11 01:37:00,
2013-04-10 21:40:00,66.8,64.4,30.04,South,186,0.0,0.0,92,0.00,,---,0.00,VWS V14.01,2013-04-11 01:40:00,
2013-04-10 21:42:00,66.9,64.5,30.04,South,186,0.0,0.0,92,0.00,,---,0.00,VWS V14.01,2013-04-11 01:42:00,
2013-04-10 21:45:00,66.8,64.4,30.04,South,186,0.0,0.0,92,0.00,,---,0.00,VWS V14.01,2013-04-11 01:45:00,
2013-04-10 21:47:00,66.8,64.4,30.04,South,186,0.0,0.0,92,0.00,,---,0.00,VWS V14.01,2013-04-11 01:47:00,
2013-04-10 21:50:00,66.8,64.4,30.03,South,186,0.0,2.0,92,0.00,,---,0.00,VWS V14.01,2013-04-11 01:50:00,
2013-04-10 21:52:00,66.8,64.4,30.03,South,186,0.0,2.0,92,0.00,,---,0.00,VWS V14.01,2013-04-11 01:52:00,
2013-04-10 21:55:00,66.8,64.4,30.04,South,186,0.0,0.0,92,0.00,,---,0.00,VWS V14.01,2013-04-11 01:55:00,
2013-04-10 21:57:00,66.8,64.4,30.04,South,186,0.0,0.0,92,0.00,,---,0.00,VWS V14.01,2013-04-11 01:57:00,
2013-04-10 22:00:00,66.8,64.4,30.04,South,186,0.0,0.0,92,0.00,,---,0.00,VWS V14.01,2013-04-11 02:00:00,
2013-04-10 22:02:00,66.8,64.4,30.04,South,186,0.0,0.0,92,0.00,,---,0.00,VWS V14.01,2013-04-11 02:02:00,
2013-04-10 22:05:00,66.8,64.4,30.04,South,186,0.0,0.0,92,0.00,,---,0.00,VWS V14.01,2013-04-11 02:05:00,
2013-04-10 22:07:00,66.8,64.4,30.04,South,186,0.0,0.0,92,0.00,,---,0.00,VWS V14.01,2013-04-11 02:07:00,
2013-04-10 22:10:00,66.7,64.3,30.03,South,186,0.0,0.0,92,0.00,,---,0.00,VWS V14.01,2013-04-11 02:10:00,
2013-04-10 22:12:00,66.7,64.3,30.03,South,186,0.0,0.0,92,0.00,,---,0.00,VWS V14.01,2013-04-11 02:12:00,
2013-04-10 22:15:00,66.7,64.3,30.03,South,186,0.0,0.0,92,0.00,,---,0.00,VWS V14.01,2013-04-11 02:15:00,
2013-04-10 22:17:00,66.7,64.3,30.03,South,186,0.0,0.0,92,0.00,,---,0.00,VWS V14.01,2013-04-11 02:17:00,
2013-04-10 22:20:00,66.6,64.2,30.03,South,186,0.0,0.0,92,0.00,,---,0.00,VWS V14.01,2013-04-11 02:20:00,
2013-04-10 22:22:00,66.6,64.2,30.03,South,186,0.0,0.0,92,0.00,,---,0.00,VWS V14.01,2013-04-11 02:22:00,
2013-04-10 22:25:00,66.5,64.1,30.03,South,186,0.0,0.0,92,0.00,,---,0.00,VWS V14.01,2013-04-11 02:25:00,
2013-04-10 22:27:00,66.5,64.1,30.03,South,186,0.0,0.0,92,0.00,,---,0.00,VWS V14.01,2013-04-11 02:27:00,
2013-04-10 22:30:00,66.5,64.1,30.03,South,186,0.0,0.0,92,0.00,,---,0.00,VWS V14.01,2013-04-11 02:30:00,
2013-04-10 22:32:00,66.4,64.0,30.03,South,186,0.0,0.0,92,0.00,,---,0.00,VWS V14.01,2013-04-11 02:32:00,
2013-04-10 22:35:00,66.3,63.9,30.03,South,186,0.0,0.0,92,0.00,,---,0.00,VWS V14.01,2013-04-11 02:35:00,
2013-04-10 22:37:00,66.3,63.9,30.03,South,186,0.0,0.0,92,0.00,,---,0.00,VWS V14.01,2013-04-11 02:37:00,
2013-04-10 22:40:00,66.2,64.1,30.03,South,186,0.0,0.0,93,0.00,,---,0.00,VWS V14.01,2013-04-11 02:40:00,
2013-04-10 22:42:00,66.2,64.1,30.03,South,186,0.0,0.0,93,0.00,,---,0.00,VWS V14.01,2013-04-11 02:42:00,
2013-04-10 22:45:00,66.3,64.2,30.03,South,186,0.0,0.0,93,0.00,,---,0.00,VWS V14.01,2013-04-11 02:45:00,
2013-04-10 22:47:00,66.2,64.1,30.03,South,186,0.0,0.0,93,0.00,,---,0.00,VWS V14.01,2013-04-11 02:47:00,
2013-04-10 22:50:00,66.2,64.1,30.03,South,186,0.0,0.0,93,0.00,,---,0.00,VWS V14.01,2013-04-11 02:50:00,
2013-04-10 22:52:00,66.1,64.0,30.03,South,186,0.0,0.0,93,0.00,,---,0.00,VWS V14.01,2013-04-11 02:52:00,
2013-04-10 22:55:00,66.0,63.9,30.03,South,186,0.0,0.0,93,0.00,,---,0.00,VWS V14.01,2013-04-11 02:55:00,
2013-04-10 22:57:00,66.0,63.9,30.03,South,186,0.0,0.0,93,0.00,,---,0.00,VWS V14.01,2013-04-11 02:57:00,
2013-04-10 23:00:00,65.9,63.8,30.03,South,186,0.0,0.0,93,0.00,,---,0.00,VWS V14.01,2013-04-11 03:00:00,
2013-04-10 23:02:00,65.9,63.8,30.03,South,186,0.0,0.0,93,0.00,,---,0.00,VWS V14.01,2013-04-11 03:02:00,
2013-04-10 23:05:00,65.7,63.6,30.03,South,186,0.0,0.0,93,0.00,,---,0.00,VWS V14.01,2013-04-11 03:05:00,
2013-04-10 23:07:00,65.7,63.6,30.03,South,186,0.0,0.0,93,0.00,,---,0.00,VWS V14.01,2013-04-11 03:07:00,
2013-04-10 23:10:00,65.6,63.5,30.03,South,186,0.0,0.0,93,0.00,,---,0.00,VWS V14.01,2013-04-11 03:10:00,
2013-04-10 23:12:00,65.6,63.5,30.03,South,186,0.0,0.0,93,0.00,,---,0.00,VWS V14.01,2013-04-11 03:12:00,
2013-04-10 23:15:00,65.6,63.8,30.02,South,186,0.0,0.0,94,0.00,,---,0.00,VWS V14.01,2013-04-11 03:15:00,
2013-04-10 23:17:00,65.6,63.8,30.02,South,186,0.0,0.0,94,0.00,,---,0.00,VWS V14.01,2013-04-11 03:17:00,
2013-04-10 23:20:00,65.6,63.8,30.02,South,186,0.0,0.0,94,0.00,,---,0.00,VWS V14.01,2013-04-11 03:20:00,
2013-04-10 23:22:00,65.6,63.8,30.02,South,186,0.0,0.0,94,0.00,,---,0.00,VWS V14.01,2013-04-11 03:22:00,
2013-04-10 23:25:00,65.6,63.8,30.02,South,186,0.0,0.0,94,0.00,,---,0.00,VWS V14.01,2013-04-11 03:25:00,
2013-04-10 23:27:00,65.6,63.8,30.02,South,186,0.0,0.0,94,0.00,,---,0.00,VWS V14.01,2013-04-11 03:27:00,
2013-04-10 23:30:00,65.6,63.8,30.01,South,186,0.0,0.0,94,0.00,,---,0.00,VWS V14.01,2013-04-11 03:30:00,
2013-04-10 23:32:00,65.6,63.8,30.02,South,186,0.0,0.0,94,0.00,,---,0.00,VWS V14.01,2013-04-11 03:32:00,
2013-04-10 23:35:00,65.8,64.0,30.01,South,186,0.0,0.0,94,0.00,,---,0.00,VWS V14.01,2013-04-11 03:35:00,
2013-04-10 23:37:00,65.8,64.0,30.01,South,186,0.0,0.0,94,0.00,,---,0.00,VWS V14.01,2013-04-11 03:37:00,
2013-04-10 23:40:00,65.8,64.0,30.01,South,186,0.0,0.0,94,0.00,,---,0.00,VWS V14.01,2013-04-11 03:40:00,
2013-04-10 23:42:00,65.8,64.0,30.01,South,186,0.0,0.0,94,0.00,,---,0.00,VWS V14.01,2013-04-11 03:42:00,
2013-04-10 23:45:00,65.8,64.0,30.01,South,186,0.0,0.0,94,0.00,,---,0.00,VWS V14.01,2013-04-11 03:45:00,
2013-04-10 23:47:00,65.8,64.0,30.01,South,186,0.0,0.0,94,0.00,,---,0.00,VWS V14.01,2013-04-11 03:47:00,
2013-04-10 23:50:00,65.8,64.0,30.01,South,186,0.0,0.0,94,0.00,,---,0.00,VWS V14.01,2013-04-11 03:50:00,
2013-04-10 23:52:00,65.8,64.0,30.01,South,186,0.0,0.0,94,0.00,,---,0.00,VWS V14.01,2013-04-11 03:52:00,
2013-04-10 23:55:00,65.8,64.0,30.01,South,186,0.0,0.0,94,0.00,,---,0.00,VWS V14.01,2013-04-11 03:55:00,
2013-04-10 23:57:00,65.7,63.9,30.01,South,186,0.0,0.0,94,0.00,,---,0.00,VWS V14.01,2013-04-11 03:57:00,